# Mixing ratio of CO2 (xCO2) in dry air measured onboard R/V Mirai (NODC Code: unknown) of the Japan Marine Science and Technology Center (JAMSTEC).,,,,,,,,,,,,,,,,,,,,,,
# Measured by Meteorological Research Institute. ,,,,,,,,,,,,,,,,,,,,,,
"# Ver. 3.0; August, 2005",,,,,,,,,,,,,,,,,,,,,,
# PI : M Ishii,,,,,,,,,,,,,,,,,,,,,,
# Concetrarion scale = MRI87,,,,,,,,,,,,,,,,,,,,,,
# Date and Time = UTC,,,,,,,,,,,,,,,,,,,,,,
"# Quality flag (F); good=2, questionable=3, bad =4, not reported = 5, no data =9",,,,,,,,,,,,,,,,,,,,,,
# Data and Cruise Report: http://www.jamstec.go.jp/mirai/track_line/MR02-K06.html,,,,,,,,,,,,,,,,,,,,,,
# Underway DIC data also available from the website,,,,,,,,,,,,,,,,,,,,,,
Ship,Cruise,Serial No.,Date,,,Time,,Latitude,Longitude,xCO2_Air,F,xCO2_Sea,F,Wind_Dir,Wind_Spd,Atm_Prs,Atm_Tmp.,SST,F,SSS,F,pH2O
,,,Year,Month,Day,Hour,Min.,Deg.,Deg.,ppm,,ppm,,Deg.,m/s,hPa,deg.C,deg.C,,,,hPa
Mirai,MR02K6,1,2002,11,14,12,6,39.0373,142.4997,-9.99,9,307.31,5,265,18.5,1007,7.3,13.94,2,33.587,2,15.61
Mirai,MR02K6,2,2002,11,14,12,18,38.9866,142.502,-9.99,9,310.11,5,269,15.4,1007.1,7.4,13.87,2,33.543,2,15.54
Mirai,MR02K6,3,2002,11,14,12,24,38.96,142.503,376.26,5,-9.99,9,270,16.1,1007.3,7.5,14.01,2,33.535,2,15.69
Mirai,MR02K6,4,2002,11,14,12,30,38.9345,142.5041,376.13,5,-9.99,9,265,17.8,1007.2,7.4,13.81,2,33.597,2,15.48
Mirai,MR02K6,5,2002,11,14,12,45,38.8743,142.5078,-9.99,9,309.08,5,273,15.3,1007.7,7.1,12.74,2,33.253,2,14.44
Mirai,MR02K6,6,2002,11,14,12,57,38.8225,142.5107,-9.99,9,309.03,5,286,13.2,1008,7.5,12.6,2,33.151,2,14.31
Mirai,MR02K6,7,2002,11,14,13,36,38.6532,142.5145,-9.99,9,305.91,5,286,14.8,1008.5,7.3,12.33,2,33.097,2,14.05
Mirai,MR02K6,8,2002,11,14,13,48,38.6015,142.5141,-9.99,9,307.29,5,278,14.1,1008.8,7.4,12.14,2,33.107,2,13.88
Mirai,MR02K6,9,2002,11,14,13,54,38.5743,142.5136,377.04,5,-9.99,9,278,14.1,1008.8,7.3,12.23,2,33.103,2,13.96
Mirai,MR02K6,10,2002,11,14,14,0,38.5486,142.5132,377.05,5,-9.99,9,277,15.4,1008.9,7.3,12.41,2,33.158,2,14.13
Mirai,MR02K6,11,2002,11,14,14,15,38.4877,142.5132,-9.99,9,305,5,274,13.7,1009,7.1,12.43,2,33.241,2,14.15
Mirai,MR02K6,12,2002,11,14,14,27,38.4374,142.5127,-9.99,9,307.36,5,276,12.4,1009.4,7.1,12.46,2,33.202,2,14.18
Mirai,MR02K6,13,2002,11,14,15,6,38.2696,142.5109,-9.99,9,305.54,5,308,12.5,1008.7,7.4,12.61,2,33.274,2,14.32
Mirai,MR02K6,14,2002,11,14,15,18,38.2176,142.508,-9.99,9,307.29,5,330,15.6,1008.3,7.7,12.65,2,33.292,2,14.35
Mirai,MR02K6,15,2002,11,14,15,24,38.1903,142.5035,377.12,5,-9.99,9,322,14.2,1008.4,7.9,12.91,2,33.317,2,14.59
Mirai,MR02K6,16,2002,11,14,15,30,38.1645,142.4993,377.19,5,-9.99,9,320,13.3,1008.7,8,12.92,2,33.383,2,14.6
Mirai,MR02K6,17,2002,11,14,15,45,38.1042,142.4865,-9.99,9,310.14,5,312,13.1,1009.1,8,12.95,2,33.39,2,14.63
Mirai,MR02K6,18,2002,11,14,15,57,38.053,142.4748,-9.99,9,309.49,5,312,13.6,1009.1,8.1,12.86,2,33.373,2,14.55
Mirai,MR02K6,19,2002,11,14,16,36,37.8855,142.4351,-9.99,9,309.28,5,319,11.3,1009.2,8.3,13.18,2,33.421,2,14.85
Mirai,MR02K6,20,2002,11,14,16,48,37.8338,142.4239,-9.99,9,309.3,5,331,10.1,1009.4,8.4,13.18,2,33.429,2,14.85
Mirai,MR02K6,21,2002,11,14,16,54,37.8071,142.418,377.2,5,-9.99,9,329,9.7,1009.4,8.4,13.22,2,33.426,2,14.89
Mirai,MR02K6,22,2002,11,14,17,0,37.7815,142.4125,377.4,5,-9.99,9,335,9.3,1009.3,8.3,13.59,2,33.464,2,15.26
Mirai,MR02K6,23,2002,11,14,17,15,37.7226,142.3999,-9.99,9,307.22,5,334,9.2,1009.3,8.6,13.97,2,33.75,2,15.64
Mirai,MR02K6,24,2002,11,14,17,27,37.675,142.3895,-9.99,9,315.14,5,312,7.9,1009.2,8.6,14.89,2,33.824,2,16.6
Mirai,MR02K6,25,2002,11,14,18,6,37.5165,142.3504,-9.99,9,316.19,5,317,4.2,1009.2,8.8,16.05,2,33.969,2,17.88
Mirai,MR02K6,26,2002,11,14,18,18,37.4672,142.3371,-9.99,9,313.23,5,334,2.5,1009.2,8.8,16.11,2,33.994,2,17.95
Mirai,MR02K6,27,2002,11,14,18,24,37.4412,142.3297,377.18,5,-9.99,9,11,4.1,1009.2,8.8,16.1,2,34.023,2,17.94
Mirai,MR02K6,28,2002,11,14,18,30,37.4163,142.3225,376.9,5,-9.99,9,344,4,1009,9.1,16.06,2,34.024,2,17.89
Mirai,MR02K6,29,2002,11,14,18,45,37.3582,142.3047,-9.99,9,316.49,5,323,3.1,1008.8,9.2,16.09,2,34.019,2,17.92
Mirai,MR02K6,30,2002,11,14,18,57,37.3088,142.2897,-9.99,9,317.27,5,315,4.1,1008.7,9.4,15.83,2,33.953,2,17.64
Mirai,MR02K6,31,2002,11,14,19,36,37.1487,142.246,-9.99,9,301.14,5,63,3.4,1008.7,9.6,14.64,2,33.62,2,16.33
Mirai,MR02K6,32,2002,11,14,19,48,37.0997,142.2344,-9.99,9,301.1,5,97,1.3,1008.8,9.8,14.63,2,33.49,2,16.32
Mirai,MR02K6,33,2002,11,14,19,54,37.0736,142.2289,376.49,5,-9.99,9,69,3.9,1008.7,9.9,14.77,2,33.536,2,16.47
Mirai,MR02K6,34,2002,11,14,20,0,37.049,142.2238,376.55,5,-9.99,9,90,2.4,1008.9,9.9,14.71,2,33.541,2,16.41
Mirai,MR02K6,35,2002,11,14,20,15,36.9912,142.2127,-9.99,9,306.45,5,63,4.3,1008.6,9.9,15.47,2,33.623,2,17.23
Mirai,MR02K6,36,2002,11,14,20,27,36.9428,142.203,-9.99,9,305.42,5,80,3.1,1008.6,10,15.06,2,33.638,2,16.78
Mirai,MR02K6,37,2002,11,14,21,6,36.7832,142.1699,-9.99,9,307.75,5,106,6.7,1008,10.5,14.93,2,33.871,2,16.64
Mirai,MR02K6,38,2002,11,14,21,18,36.7351,142.1601,-9.99,9,311.72,5,104,5.3,1007.8,10.5,15,2,34.013,2,16.72
Mirai,MR02K6,39,2002,11,14,21,24,36.7098,142.1552,376.27,5,-9.99,9,110,7.7,1007.6,10.7,14.9,2,34.022,2,16.61
Mirai,MR02K6,40,2002,11,14,21,30,36.6859,142.1511,376.4,5,-9.99,9,103,7.1,1007.6,10.6,14.68,2,33.932,2,16.37
Mirai,MR02K6,41,2002,11,14,21,45,36.6305,142.1379,-9.99,9,318.59,5,106,5.5,1007.7,10.9,15.65,2,33.875,2,17.44
Mirai,MR02K6,42,2002,11,14,21,57,36.5834,142.1252,-9.99,9,318.11,5,112,6.5,1007.6,11.3,17.17,2,33.853,2,19.21
Mirai,MR02K6,43,2002,11,14,22,36,36.4305,142.0792,-9.99,9,334.52,5,125,6.7,1007.8,12.6,19.24,2,34.597,2,21.88
Mirai,MR02K6,44,2002,11,14,22,48,36.3838,142.07,-9.99,9,339.01,5,119,7.9,1007.7,12.9,19.6,2,34.558,2,22.36
Mirai,MR02K6,45,2002,11,14,22,54,36.3591,142.0644,377.03,5,-9.99,9,129,8.6,1007.2,13,19.52,2,34.571,2,22.25
Mirai,MR02K6,46,2002,11,14,23,0,36.3358,142.0592,377.02,5,-9.99,9,121,4.4,1007.1,13.2,19.72,2,34.568,2,22.53
Mirai,MR02K6,47,2002,11,14,23,15,36.2823,142.0463,-9.99,9,345.28,5,125,6.8,1006.5,14,20.34,2,34.575,2,23.42
Mirai,MR02K6,48,2002,11,14,23,27,36.2374,142.0345,-9.99,9,340.24,5,173,6.3,1005.7,14.6,19.82,2,34.606,2,22.67
Mirai,MR02K6,49,2002,11,15,0,6,36.0863,142.0013,-9.99,9,347.63,5,207,4,1005.1,15.5,20.15,2,34.56,2,23.14
Mirai,MR02K6,50,2002,11,15,0,18,36.042,141.9908,-9.99,9,346.91,5,245,11,1005.7,15.9,20.62,2,34.547,2,23.83
Mirai,MR02K6,51,2002,11,15,0,24,36.0183,141.9849,376.88,5,-9.99,9,254,10.8,1005.8,15.7,20.73,2,34.562,2,23.99
Mirai,MR02K6,52,2002,11,15,0,30,35.9958,141.979,375.97,5,-9.99,9,245,10.2,1005.7,15.6,20.77,2,34.573,2,24.05
Mirai,MR02K6,53,2002,11,15,0,45,35.9418,141.9672,-9.99,9,353.12,5,250,9.9,1005.3,15.5,20.29,2,34.608,2,23.35
Mirai,MR02K6,54,2002,11,15,0,57,35.8946,141.9575,-9.99,9,350.87,5,266,11.5,1005.2,15.4,18.7,2,34.648,2,21.15
Mirai,MR02K6,55,2002,11,15,1,36,35.739,141.9374,-9.99,9,348.39,5,269,11.2,1005.1,15.5,17.98,2,34.51,2,20.21
Mirai,MR02K6,56,2002,11,15,1,48,35.6938,141.9326,-9.99,9,347.35,5,267,12.9,1004.3,15.6,18.05,2,34.479,2,20.3
Mirai,MR02K6,57,2002,11,15,1,54,35.6707,141.9297,376.26,5,-9.99,9,-99,-9.9,1004.1,15.6,19.02,2,-9.999,9,21.58
Mirai,MR02K6,58,2002,11,15,2,0,35.6496,141.9268,376.42,5,-9.99,9,259,10.1,1004.6,15.9,20.43,2,-9.999,9,23.55
Mirai,MR02K6,59,2002,11,15,2,14,35.601,141.9169,-9.99,9,334.79,5,247,7.7,1003.7,16.1,22.02,2,34.65,2,25.96
Mirai,MR02K6,60,2002,11,15,2,27,35.5604,141.9063,-9.99,9,334.36,5,273,9.9,1003.8,16.1,22.4,2,34.653,2,26.57
Mirai,MR02K6,61,2002,11,15,3,6,35.429,141.8668,-9.99,9,331.15,5,273,9.7,1003.3,16.5,22.71,2,34.682,2,27.07
Mirai,MR02K6,62,2002,11,15,3,18,35.3879,141.857,-9.99,9,331.51,5,270,11,1003.3,16.5,22.66,2,34.653,2,26.98
Mirai,MR02K6,63,2002,11,15,3,24,35.3664,141.8517,375.87,5,-9.99,9,267,13.1,1002.9,16.6,22.66,2,34.647,2,26.98
Mirai,MR02K6,64,2002,11,15,3,30,35.3461,141.8466,376.37,5,-9.99,9,260,10,1003,16.6,22.65,2,34.647,2,26.97
Mirai,MR02K6,65,2002,11,15,3,44,35.2975,141.8339,-9.99,9,331.01,5,269,11.3,1003.6,16.6,22.61,2,34.658,2,26.9
Mirai,MR02K6,66,2002,11,15,3,56,35.2556,141.8218,-9.99,9,329.37,5,272,12,1002.9,16.5,22.53,2,34.671,2,26.79
Mirai,MR02K6,67,2002,11,15,5,36,34.8833,141.7513,-9.99,9,333.29,5,257,11.9,1003.3,17.2,22.32,2,34.722,2,26.44
Mirai,MR02K6,68,2002,11,15,5,48,34.8379,141.7434,-9.99,9,332.93,5,245,13.4,1003.2,17.3,22.33,2,34.721,2,26.46
Mirai,MR02K6,69,2002,11,15,5,54,34.8139,141.7391,377.3,5,-9.99,9,267,11.8,1003.4,17.2,22.33,2,34.721,2,26.46
Mirai,MR02K6,70,2002,11,15,6,0,34.7911,141.7348,377.52,5,-9.99,9,256,10.6,1003.5,17.2,22.33,2,34.727,2,26.46
Mirai,MR02K6,71,2002,11,15,6,15,34.7376,141.7243,-9.99,9,331.78,5,260,11.5,1003.6,17.4,22.33,2,34.716,2,26.46
Mirai,MR02K6,72,2002,11,15,6,27,34.6922,141.7149,-9.99,9,331.37,5,268,11.2,1003.8,17.4,22.33,2,34.729,2,26.46
Mirai,MR02K6,73,2002,11,15,7,6,34.542,141.6829,-9.99,9,330.89,5,253,12.2,1003.7,17.6,22.31,2,34.725,2,26.43
Mirai,MR02K6,74,2002,11,15,7,18,34.4957,141.6726,-9.99,9,332.4,5,258,10.7,1003.9,17.6,22.4,2,34.722,2,26.57
Mirai,MR02K6,75,2002,11,15,7,24,34.4712,141.6668,377.12,5,-9.99,9,263,12.5,1004.1,17.7,22.44,2,34.723,2,26.64
Mirai,MR02K6,76,2002,11,15,7,30,34.4479,141.6611,377.46,5,-9.99,9,263,11.5,1004,17.5,22.44,2,34.723,2,26.64
Mirai,MR02K6,77,2002,11,15,7,45,34.3928,141.647,-9.99,9,331.37,5,245,11.6,1003.8,17.6,22.39,2,34.725,2,26.56
Mirai,MR02K6,78,2002,11,15,7,57,34.3462,141.6342,-9.99,9,332.07,5,257,12.7,1004.6,17.7,22.41,2,34.73,2,26.59
Mirai,MR02K6,79,2002,11,15,8,36,34.1937,141.5942,-9.99,9,330.21,5,259,11.9,1005.7,17.7,22.48,2,34.715,2,26.7
Mirai,MR02K6,80,2002,11,15,8,48,34.1471,141.5817,-9.99,9,330.27,5,252,8.6,1005.6,17.6,22.51,2,34.714,2,26.75
Mirai,MR02K6,81,2002,11,15,8,54,34.1223,141.5748,379.02,5,-9.99,9,261,10.8,1005.8,17.9,22.52,2,34.729,2,26.77
Mirai,MR02K6,82,2002,11,15,9,0,34.0987,141.5681,379.31,5,-9.99,9,260,12.5,1005.9,17.7,22.51,2,34.747,2,26.75
Mirai,MR02K6,83,2002,11,15,9,15,34.0435,141.5517,-9.99,9,331.3,5,262,10.7,1005.8,17.7,22.46,2,34.743,2,26.67
Mirai,MR02K6,84,2002,11,15,9,27,33.9952,141.5423,-9.99,9,330.5,5,271,12.4,1006,17.8,22.58,2,34.738,2,26.85
Mirai,MR02K6,85,2002,11,15,10,6,33.8393,141.5117,-9.99,9,331.45,5,257,13,1006.8,17.9,22.68,2,34.713,2,27.02
Mirai,MR02K6,86,2002,11,15,10,18,33.7921,141.5027,-9.99,9,333.41,5,267,14.4,1007.3,18,22.87,2,34.702,2,27.33
Mirai,MR02K6,87,2002,11,15,10,24,33.767,141.4977,379.49,5,-9.99,9,271,11,1007.3,17.8,22.85,2,34.704,2,27.3
Mirai,MR02K6,88,2002,11,15,10,30,33.7433,141.4933,379.56,5,-9.99,9,266,13.5,1007.4,18,22.79,2,34.708,2,27.2
Mirai,MR02K6,89,2002,11,15,10,45,33.6877,141.4824,-9.99,9,331.63,5,268,13.6,1007.4,18.1,22.82,2,34.698,2,27.25
Mirai,MR02K6,90,2002,11,15,10,57,33.6398,141.4726,-9.99,9,332.19,5,269,12.7,1007.5,18,22.78,2,34.704,2,27.18
Mirai,MR02K6,91,2002,11,15,11,36,33.4819,141.4432,-9.99,9,331.68,5,263,11.7,1008.1,18.2,22.77,2,34.695,2,27.17
Mirai,MR02K6,92,2002,11,15,11,48,33.4328,141.433,-9.99,9,331.23,5,265,11.7,1008.3,18.2,22.75,2,34.693,2,27.13
Mirai,MR02K6,93,2002,11,15,11,54,33.4065,141.4267,378.63,5,-9.99,9,270,11.3,1008.5,18.2,22.76,2,34.692,2,27.15
Mirai,MR02K6,94,2002,11,15,12,0,33.3819,141.4209,378.34,5,-9.99,9,262,12.7,1008.2,18.3,22.78,2,34.692,2,27.18
Mirai,MR02K6,95,2002,11,15,12,15,33.3237,141.4079,-9.99,9,332.21,5,271,11.3,1008.3,18.3,22.88,2,34.69,2,27.35
Mirai,MR02K6,96,2002,11,15,12,27,33.274,141.3966,-9.99,9,331.54,5,270,12.1,1008.4,18.3,22.8,2,34.696,2,27.22
Mirai,MR02K6,97,2002,11,15,13,6,33.1137,141.3561,-9.99,9,330.17,5,286,10.2,1008.6,18.3,22.57,2,34.717,2,26.84
Mirai,MR02K6,98,2002,11,15,13,18,33.0632,141.3477,-9.99,9,330.29,5,290,10.5,1008.8,18.3,22.8,2,34.694,2,27.22
Mirai,MR02K6,99,2002,11,15,13,24,33.0366,141.3428,378.95,5,-9.99,9,291,10.8,1008.9,18.3,22.86,2,34.692,2,27.31
Mirai,MR02K6,100,2002,11,15,13,30,33.0117,141.3377,378.91,5,-9.99,9,283,11.1,1008.9,18.3,22.9,2,34.692,2,27.38
Mirai,MR02K6,101,2002,11,15,13,45,32.9533,141.3247,-9.99,9,332.01,5,294,11.5,1009.3,18.4,22.9,2,34.696,2,27.38
Mirai,MR02K6,102,2002,11,15,13,57,32.9042,141.3136,-9.99,9,331.62,5,290,9.7,1009.1,18.3,22.88,2,34.698,2,27.35
Mirai,MR02K6,103,2002,11,15,14,36,32.7398,141.2772,-9.99,9,330.74,5,289,10.6,1008.7,18.2,22.86,2,34.685,2,27.31
Mirai,MR02K6,104,2002,11,15,14,48,32.6884,141.2656,-9.99,9,331.3,5,291,9.4,1009.1,18.5,22.87,2,34.682,2,27.33
Mirai,MR02K6,105,2002,11,15,14,54,32.6614,141.2594,379.08,5,-9.99,9,299,10.4,1009.1,18.4,22.89,2,34.681,2,27.36
Mirai,MR02K6,106,2002,11,15,15,0,32.6357,141.2538,378.92,5,-9.99,9,314,9.4,1009,18.4,22.91,2,34.681,2,27.4
Mirai,MR02K6,107,2002,11,15,15,15,32.5748,141.2399,-9.99,9,331.34,5,304,11.7,1009.4,18.7,22.89,2,34.687,2,27.36
Mirai,MR02K6,108,2002,11,15,15,27,32.5227,141.2279,-9.99,9,330.84,5,304,10.8,1009.6,18.6,22.89,2,34.686,2,27.36
Mirai,MR02K6,109,2002,11,15,16,6,32.3522,141.1867,-9.99,9,330.13,5,319,10.3,1009.6,18.4,22.86,2,34.691,2,27.31
Mirai,MR02K6,110,2002,11,15,16,18,32.2999,141.1752,-9.99,9,331.4,5,309,8.9,1009.6,18.7,22.84,2,34.695,2,27.28
Mirai,MR02K6,111,2002,11,15,16,24,32.2728,141.1691,378.54,5,-9.99,9,315,8.3,1009.7,18.5,22.84,2,34.688,2,27.28
Mirai,MR02K6,112,2002,11,15,16,30,32.2473,141.1633,378.47,5,-9.99,9,318,7.3,1009.8,18.6,22.91,2,34.687,2,27.4
Mirai,MR02K6,113,2002,11,15,16,45,32.1865,141.1479,-9.99,9,330.25,5,323,6.6,1009.9,18.2,22.94,2,34.698,2,27.45
Mirai,MR02K6,114,2002,11,15,16,57,32.136,141.1364,-9.99,9,335.08,5,294,3.1,1009.9,17.4,23.52,2,34.932,2,28.43
Mirai,MR02K6,115,2002,11,15,17,36,31.968,141.1028,-9.99,9,333.05,5,323,7.6,1010.2,17.5,23.25,2,34.833,2,27.97
Mirai,MR02K6,116,2002,11,15,17,48,31.9172,141.0947,-9.99,9,336.38,5,338,8.6,1010.2,17.6,23.72,2,34.93,2,28.78
Mirai,MR02K6,117,2002,11,15,17,54,31.8904,141.0902,377.65,5,-9.99,9,323,9.9,1010.5,17.9,23.79,2,34.965,2,28.9
Mirai,MR02K6,118,2002,11,15,18,0,31.865,141.0857,377.65,5,-9.99,9,332,9.1,1010.3,17.7,23.89,2,34.966,2,29.08
Mirai,MR02K6,119,2002,11,15,18,15,31.8054,141.0741,-9.99,9,341.51,5,344,10.2,1010.1,17.7,23.96,2,34.938,2,29.2
Mirai,MR02K6,120,2002,11,15,18,27,31.7546,141.0645,-9.99,9,341.71,5,344,10.3,1009.9,17.7,23.96,2,34.938,2,29.2
Mirai,MR02K6,121,2002,11,15,19,6,31.5895,141.0251,-9.99,9,337.77,5,327,6.2,1010.1,17,23.59,2,34.839,2,28.55
Mirai,MR02K6,122,2002,11,15,19,18,31.5392,141.0123,-9.99,9,337.39,5,-99,-9.9,1010.3,-9.9,23.73,2,-9.999,9,28.8
Mirai,MR02K6,123,2002,11,15,19,24,31.5124,141.0057,374.78,5,-9.99,9,-99,-9.9,1010.5,17.9,23.9,2,-9.999,9,29.1
Mirai,MR02K6,124,2002,11,15,19,30,31.4871,141,374.99,5,-9.99,9,333,8.7,1010.8,17.7,24.01,2,34.929,2,29.29
Mirai,MR02K6,125,2002,11,15,19,44,31.4261,140.9872,-9.99,9,340.5,5,338,7.8,1010.6,17.6,23.97,2,34.955,2,29.22
Mirai,MR02K6,126,2002,11,15,19,57,31.375,140.9768,-9.99,9,340.05,5,331,8.9,1010.5,17.3,23.89,2,34.872,2,29.08
Mirai,MR02K6,127,2002,11,15,20,36,31.2079,140.9418,-9.99,9,342.2,5,353,7,1010.8,17.3,24.09,2,34.93,2,29.43
Mirai,MR02K6,128,2002,11,15,20,48,31.1562,140.9314,-9.99,9,341.77,5,9,7.9,1011,17.6,24.04,2,34.926,2,29.34
Mirai,MR02K6,129,2002,11,15,20,54,31.1287,140.9258,375.01,5,-9.99,9,331,8.8,1011.4,17.7,24.08,2,34.928,2,29.41
Mirai,MR02K6,130,2002,11,15,21,0,31.1026,140.9206,374.88,5,-9.99,9,343,7,1010.8,18,24.02,2,34.93,2,29.31
Mirai,MR02K6,131,2002,11,15,21,14,31.0405,140.9075,-9.99,9,339.5,5,351,8.4,1010.3,18,23.74,2,34.875,2,28.82
Mirai,MR02K6,132,2002,11,15,21,26,30.9879,140.8964,-9.99,9,338.63,5,4,7.9,1010.6,18.1,23.69,2,34.853,2,28.73
Mirai,MR02K6,133,2002,11,15,22,6,30.8157,140.8577,-9.99,9,340.89,5,3,8.5,1010.4,18.6,23.96,2,34.919,2,29.2
Mirai,MR02K6,134,2002,11,15,22,18,30.7639,140.846,-9.99,9,341.79,5,1,8.1,1010.8,18.7,24.1,2,34.938,2,29.45
Mirai,MR02K6,135,2002,11,15,22,24,30.7368,140.84,374.83,5,-9.99,9,4,6.6,1010.9,18.5,24.11,2,34.962,2,29.47
Mirai,MR02K6,136,2002,11,15,22,30,30.7108,140.8343,374.75,5,-9.99,9,6,7.1,1010.7,18.7,24.1,2,34.965,2,29.45
Mirai,MR02K6,137,2002,11,15,22,44,30.6501,140.821,-9.99,9,339.68,5,1,6.6,1011,18.7,24.08,2,34.985,2,29.41
Mirai,MR02K6,138,2002,11,15,22,56,30.5991,140.8093,-9.99,9,338.14,5,6,6.5,1011.5,18.6,24.07,2,35.012,2,29.4
Mirai,MR02K6,139,2002,11,15,23,36,30.4288,140.7758,-9.99,9,336.69,5,31,7.6,1011.3,18.5,23.94,2,34.977,2,29.17
Mirai,MR02K6,140,2002,11,15,23,48,30.3755,140.7657,-9.99,9,337.05,5,21,8.3,1012.1,18.7,23.95,2,34.987,2,29.18
Mirai,MR02K6,141,2002,11,15,23,54,30.3475,140.7602,374.63,5,-9.99,9,32,7.9,1011.5,18.9,23.97,2,34.989,2,29.22
Mirai,MR02K6,142,2002,11,16,0,0,30.3209,140.7548,374.77,5,-9.99,9,25,7.9,1011.3,19.1,23.95,2,34.989,2,29.18
Mirai,MR02K6,143,2002,11,16,0,14,30.2591,140.7422,-9.99,9,338.28,5,33,6.5,1011.3,19.1,23.99,2,34.979,2,29.25
Mirai,MR02K6,144,2002,11,16,0,26,30.207,140.7315,-9.99,9,336.08,5,31,8.6,1011.4,19,23.79,2,34.963,2,28.9
Mirai,MR02K6,145,2002,11,16,1,6,30.0364,140.6961,-9.99,9,337.78,5,33,9.2,1010.8,18.9,23.77,2,34.912,2,28.87
Mirai,MR02K6,146,2002,11,16,1,18,30.0001,140.687,-9.99,9,337.04,5,25,8.8,1010.2,19.1,23.73,2,34.87,2,28.8
Mirai,MR02K6,147,2002,11,16,1,24,30.0002,140.6851,374.37,5,-9.99,9,25,8.9,1010.1,18.9,23.75,2,34.88,2,28.83
Mirai,MR02K6,148,2002,11,16,1,30,30.0008,140.6844,374.53,5,-9.99,9,38,8,1010.7,19.2,23.76,2,34.885,2,28.85
Mirai,MR02K6,149,2002,11,16,1,44,30.0014,140.682,-9.99,9,337.26,5,37,7.1,1010.1,19.4,23.76,2,34.892,2,28.85
Mirai,MR02K6,150,2002,11,16,1,56,30.0025,140.6801,-9.99,9,337.4,5,32,6.5,1010.3,19.4,23.76,2,34.892,2,28.85
Mirai,MR02K6,151,2002,11,16,2,36,29.9669,140.6703,-9.99,9,336.91,5,35,6.8,1010.3,19.6,23.75,2,34.889,2,28.83
Mirai,MR02K6,152,2002,11,16,2,48,29.9171,140.6616,-9.99,9,337.04,5,42,5.6,1010.5,19.2,23.76,2,34.86,2,28.85
Mirai,MR02K6,153,2002,11,16,2,54,29.8913,140.6573,374.77,5,-9.99,9,57,6.1,1010.3,19.2,23.92,2,34.82,2,29.13
Mirai,MR02K6,154,2002,11,16,3,0,29.8637,140.6522,374.61,5,-9.99,9,45,6.1,1010,19.1,23.96,2,34.823,2,29.2
Mirai,MR02K6,155,2002,11,16,3,14,29.8019,140.6402,-9.99,9,339.09,5,64,5.8,1010.2,19,23.71,2,34.791,2,28.76
Mirai,MR02K6,156,2002,11,16,3,26,29.7501,140.6298,-9.99,9,336.96,5,51,6.3,1009.8,19.2,23.62,2,34.818,2,28.61
Mirai,MR02K6,157,2002,11,16,4,6,29.5865,140.5897,-9.99,9,347.77,5,42,6.8,1010,19.9,25.27,2,34.997,2,31.58
Mirai,MR02K6,158,2002,11,16,4,18,29.5372,140.577,-9.99,9,347.59,5,39,6.4,1009.7,20.2,25.29,2,35.029,2,31.61
Mirai,MR02K6,159,2002,11,16,4,24,29.511,140.57,374.2,5,-9.99,9,68,5.6,1010.2,20.3,25.36,2,35.023,2,31.75
Mirai,MR02K6,160,2002,11,16,4,30,29.4862,140.5634,374.33,5,-9.99,9,81,4.2,1010,20.4,25.37,2,35.041,2,31.77
Mirai,MR02K6,161,2002,11,16,4,44,29.4277,140.5474,-9.99,9,348.36,5,77,5.4,1010,20.5,25.41,2,35.051,2,31.84
Mirai,MR02K6,162,2002,11,16,4,56,29.3778,140.5331,-9.99,9,348.57,5,71,5.2,1009.9,20.7,25.4,2,35.047,2,31.82
Mirai,MR02K6,163,2002,11,16,5,36,29.2102,140.4879,-9.99,9,348.57,5,82,4.4,1009.9,21.8,25.41,2,35.044,2,31.84
Mirai,MR02K6,164,2002,11,16,5,48,29.1599,140.4733,-9.99,9,347.93,5,78,5,1009.7,22,25.39,2,35.056,2,31.8
Mirai,MR02K6,165,2002,11,16,5,54,29.1333,140.4657,373.92,5,-9.99,9,75,3.9,1009.5,22.2,25.31,2,35.047,2,31.65
Mirai,MR02K6,166,2002,11,16,6,0,29.1082,140.4586,373.83,5,-9.99,9,90,4.1,1009.4,22.4,25.26,2,35.016,2,31.56
Mirai,MR02K6,167,2002,11,16,6,14,29.0474,140.441,-9.99,9,350.3,5,106,3.3,1009.4,22.9,25.08,2,34.965,2,31.22
Mirai,MR02K6,168,2002,11,16,6,26,28.9966,140.4253,-9.99,9,350.13,5,108,3.3,1009.3,23.2,25.18,2,34.956,2,31.41
Mirai,MR02K6,169,2002,11,16,7,6,28.8312,140.3749,-9.99,9,352.51,5,193,3.2,1009.5,23.8,24.83,2,34.893,2,30.75
Mirai,MR02K6,170,2002,11,16,7,18,28.7804,140.3617,-9.99,9,352.27,5,191,2.8,1009.6,23.9,24.85,2,34.905,2,30.79
Mirai,MR02K6,171,2002,11,16,7,24,28.7535,140.3552,373.92,5,-9.99,9,-99,-9.9,1009.7,24,24.97,2,-9.999,9,31.01
Mirai,MR02K6,172,2002,11,16,7,30,28.7283,140.3493,373.79,5,-9.99,9,197,4,1009.7,24,25.24,2,-9.999,9,31.52
Mirai,MR02K6,173,2002,11,16,7,44,28.6668,140.3353,-9.99,9,352.2,5,204,2.1,1009.9,23.9,25.06,2,34.969,2,31.18
Mirai,MR02K6,174,2002,11,16,7,56,28.6158,140.3231,-9.99,9,352.72,5,214,5.8,1009.8,24.4,24.84,2,34.846,2,30.77
Mirai,MR02K6,175,2002,11,16,8,36,28.4537,140.2701,-9.99,9,351.11,5,205,5.6,1009.9,24.6,24.73,2,34.826,2,30.57
Mirai,MR02K6,176,2002,11,16,8,48,28.4028,140.2541,-9.99,9,351.56,5,212,5.5,1010.5,24.6,24.74,2,34.829,2,30.59
Mirai,MR02K6,177,2002,11,16,8,54,28.3764,140.2465,372.52,5,-9.99,9,217,7.4,1010.3,24.6,24.71,2,34.84,2,30.53
Mirai,MR02K6,178,2002,11,16,9,0,28.3513,140.2397,372.29,5,-9.99,9,224,7.6,1010.3,24.7,24.69,2,34.855,2,30.5
Mirai,MR02K6,179,2002,11,16,9,14,28.2927,140.224,-9.99,9,351.53,5,219,7.9,1010.3,24.8,24.79,2,34.853,2,30.68
Mirai,MR02K6,180,2002,11,16,9,26,28.2429,140.2113,-9.99,9,351.29,5,216,8.2,1010.4,24.9,24.97,2,34.807,2,31.01
Mirai,MR02K6,181,2002,11,16,10,6,28.0835,140.1655,-9.99,9,350.82,5,225,8.8,1011.3,25,25.05,2,34.813,2,31.16
Mirai,MR02K6,182,2002,11,16,10,18,28.035,140.1506,-9.99,9,350.91,5,222,8.4,1011.5,24.9,24.87,2,34.822,2,30.83
Mirai,MR02K6,183,2002,11,16,10,24,28.0091,140.1437,372,5,-9.99,9,240,12.9,1011.3,24.6,24.86,2,34.82,2,30.81
Mirai,MR02K6,184,2002,11,16,10,30,27.9848,140.1374,372.17,5,-9.99,9,236,9.5,1011.7,24.4,24.93,2,34.811,2,30.94
Mirai,MR02K6,185,2002,11,16,10,44,27.9267,140.1205,-9.99,9,350.22,5,274,8.5,1012,24.2,25.04,2,34.789,2,31.14
Mirai,MR02K6,186,2002,11,16,10,56,27.8781,140.1056,-9.99,9,349.44,5,235,11.6,1011.6,24.5,25.06,2,34.809,2,31.18
Mirai,MR02K6,187,2002,11,16,11,36,27.7137,140.0648,-9.99,9,350.02,5,239,8.9,1012.4,25,25.45,2,34.848,2,31.92
Mirai,MR02K6,188,2002,11,16,11,48,27.6645,140.0518,-9.99,9,349.48,5,238,8.8,1012.3,25,25.48,2,34.851,2,31.98
Mirai,MR02K6,189,2002,11,16,11,54,27.6386,140.0446,372.16,5,-9.99,9,237,7.9,1012.3,25,25.48,2,34.852,2,31.98
Mirai,MR02K6,190,2002,11,16,12,0,27.6137,140.0376,372.15,5,-9.99,9,236,8.6,1012.4,25,25.47,2,34.853,2,31.96
Mirai,MR02K6,191,2002,11,16,12,14,27.5542,140.0199,-9.99,9,349.65,5,238,7.7,1012.4,25,25.5,2,34.848,2,32.01
Mirai,MR02K6,192,2002,11,16,12,26,27.5032,140.0049,-9.99,9,352.06,5,237,7,1012.5,24.9,25.19,2,34.84,2,31.43
Mirai,MR02K6,193,2002,11,16,13,6,27.3365,139.9615,-9.99,9,351.05,5,236,6.5,1012.7,24.9,25.54,2,34.846,2,32.09
Mirai,MR02K6,194,2002,11,16,13,18,27.2861,139.9464,-9.99,9,351.35,5,238,7.1,1012.9,24.8,25.48,2,34.836,2,31.98
Mirai,MR02K6,195,2002,11,16,13,24,27.2597,139.9383,372.19,5,-9.99,9,233,7.3,1012.8,24.8,25.38,2,34.835,2,31.79
Mirai,MR02K6,196,2002,11,16,13,30,27.2346,139.9306,372.17,5,-9.99,9,232,7.4,1012.8,24.8,25.34,2,34.831,2,31.71
Mirai,MR02K6,197,2002,11,16,13,44,27.175,139.9124,-9.99,9,354.39,5,269,10.4,1012.9,23.6,25.27,2,34.823,2,31.58
Mirai,MR02K6,198,2002,11,16,13,56,27.1249,139.8968,-9.99,9,354.37,5,275,8.3,1013.1,23.9,25.1,2,34.818,2,31.26
Mirai,MR02K6,199,2002,11,16,14,36,26.9586,139.8504,-9.99,9,353.27,5,235,5.4,1013.1,24.9,25.48,2,34.82,2,31.98
Mirai,MR02K6,200,2002,11,16,14,48,26.9068,139.8369,-9.99,9,353.04,5,219,4.3,1013.1,24.7,25.44,2,34.825,2,31.9
Mirai,MR02K6,201,2002,11,16,14,54,26.8794,139.8297,372.29,5,-9.99,9,232,4.9,1013.1,24.5,25.42,2,34.82,2,31.86
Mirai,MR02K6,202,2002,11,16,15,0,26.8535,139.8226,372.38,5,-9.99,9,233,4.8,1013,24.6,25.27,2,34.824,2,31.58
Mirai,MR02K6,203,2002,11,16,15,14,26.7925,139.8048,-9.99,9,354.45,5,232,4.3,1013.2,24.5,25.13,2,34.838,2,31.31
Mirai,MR02K6,204,2002,11,16,15,26,26.7416,139.7899,-9.99,9,356.03,5,211,4.3,1013.3,24.4,25.22,2,34.832,2,31.48
Mirai,MR02K6,205,2002,11,16,16,6,26.573,139.7378,-9.99,9,356.26,5,216,5.7,1013.3,24.6,25.22,2,34.831,2,31.48
Mirai,MR02K6,206,2002,11,16,16,18,26.5223,139.7211,-9.99,9,355.12,5,228,5,1013.3,24.6,25.22,2,34.827,2,31.48
Mirai,MR02K6,207,2002,11,16,16,24,26.4954,139.7136,372.24,5,-9.99,9,232,5.2,1013.3,24.6,25.26,2,34.831,2,31.56
Mirai,MR02K6,208,2002,11,16,16,30,26.4694,139.707,372.16,5,-9.99,9,229,5.4,1013.3,24.7,25.45,2,34.831,2,31.92
Mirai,MR02K6,209,2002,11,16,16,44,26.4081,139.6919,-9.99,9,352.45,5,225,4.8,1013.1,24.6,25.64,2,34.874,2,32.28
Mirai,MR02K6,210,2002,11,16,16,56,26.3562,139.6791,-9.99,9,352.28,5,217,4.7,1013,24.7,25.68,2,34.897,2,32.36